"startDT [UTC]","vpos","CH4 [ppm]","stdev(CH4) [ppm]","CO2 [ppm]","stdev(CO2) [ppm]","H2O_reported [%]","stdev(H2O_reported)","CavityPressure [torr]","CavityTemp [C]","OutletValve","CH4_dry [ppm]","CO2_dry [ppm]","DasTemp [C]","EtalonTemp [C]","WarmBoxTemp [C]","MPVPosition","T_ECpre [C]","T_EC1 [C]","T_EC2 [C]","p_inlet [hPa]","p_in [hPa]","p_out [hPa]","T_inlet [C]","RH_inlet [%]","dwpt_inlet [C]","T_vent [C]","RH_vent [%]","dwpt_vent [C]","flow_vent [l min-1]","flow_inlet [l min-1]","dwpt_sample [C]","T_room [C]"
2015-05-15 00:00:00,0.0,1.90811,0.00038,404.818,0.050,0.2473,0.0021,140.001,45.000,34186.37825,1.91275,406.031,32.578,45.068,45.000,0.00,0.09,-272.72,-272.77,-6,979,-3,22.4,6.8,-15.4,22.0,7.0,-15.3,5.73,1.96,-9.1,26.5
2015-05-15 00:01:00,0.0,1.90798,0.00033,404.796,0.035,0.2468,0.0022,140.001,45.000,34187.58230,1.91268,406.004,32.602,45.068,45.000,0.00,0.09,-272.72,-272.78,-6,980,-3,22.4,6.9,-15.4,22.0,7.0,-15.3,5.73,1.97,-9.1,26.5
2015-05-15 00:02:00,0.0,1.90777,0.00036,404.781,0.043,0.2518,0.0013,140.000,45.000,34186.35466,1.91251,406.015,32.620,45.068,44.999,0.00,0.09,-272.72,-272.78,-6,980,-3,22.4,6.9,-15.2,22.1,7.1,-15.1,5.73,1.97,-9.1,26.5
2015-05-15 00:03:00,0.0,1.90812,0.00038,404.858,0.031,0.2521,0.0022,140.003,45.000,34184.99513,1.91289,406.091,32.617,45.068,44.999,0.00,0.09,-272.71,-272.77,-5,980,-3,22.4,7.0,-15.2,22.1,7.2,-15.0,5.73,1.97,-9.1,26.5
2015-05-15 00:04:00,0.0,1.90809,0.00037,404.856,0.038,0.2504,0.0015,140.000,45.000,34185.59784,1.91281,406.085,32.614,45.068,44.999,0.00,0.09,-272.72,-272.78,-5,980,-3,22.4,6.9,-15.2,22.1,7.2,-15.1,5.73,1.96,-9.1,26.5
2015-05-15 00:05:00,0.0,1.90811,0.00021,404.822,0.024,0.2507,0.0026,139.999,45.000,34186.16704,1.91285,406.051,32.589,45.068,45.000,0.00,0.09,-272.72,-272.78,-5,979,-3,22.4,6.9,-15.2,22.1,7.1,-15.1,5.73,1.97,-9.1,26.5
2015-05-15 00:06:00,0.0,1.90832,0.00038,404.844,0.035,0.2460,0.0023,140.001,45.000,34185.01452,1.91297,406.049,32.573,45.068,45.000,0.00,0.09,-272.72,-272.77,-5,979,-3,22.4,6.8,-15.4,22.1,7.0,-15.3,5.73,1.97,-9.1,26.5
2015-05-15 00:07:00,0.0,1.90837,0.00036,404.842,0.039,0.2447,0.0018,139.999,45.000,34182.44322,1.91298,406.042,32.573,45.068,45.000,0.00,0.09,-272.72,-272.77,-6,980,-3,22.4,6.8,-15.6,22.1,7.0,-15.4,5.73,1.97,-9.1,26.5
2015-05-15 00:08:00,0.0,1.90860,0.00043,404.829,0.036,0.2457,0.0028,139.997,45.000,34183.07551,1.91326,406.034,32.573,45.068,45.000,0.00,0.09,-272.73,-272.78,-6,980,-3,22.4,6.8,-15.5,22.1,7.0,-15.4,5.73,1.96,-9.1,26.5
2015-05-15 00:09:00,0.0,1.90852,0.00036,404.818,0.040,0.2446,0.0029,139.997,45.000,34182.65543,1.91313,406.015,32.575,45.068,45.000,0.00,0.09,-272.71,-272.77,-6,980,-3,22.4,6.7,-15.6,22.1,7.0,-15.4,5.73,1.96,-9.1,26.5
2015-05-15 00:10:00,0.0,1.90827,0.00031,404.806,0.030,0.2414,0.0031,139.997,45.000,34184.45192,1.91284,405.988,32.607,45.069,45.000,0.00,0.09,-272.71,-272.78,-6,980,-3,22.4,6.6,-15.7,22.1,6.9,-15.6,5.73,1.96,-9.1,26.6
2015-05-15 00:11:00,0.0,1.90807,0.00039,404.785,0.044,0.2429,0.0012,139.998,45.000,34187.97956,1.91266,405.974,32.609,45.068,45.000,0.00,0.09,-272.72,-272.78,-6,980,-3,22.4,6.7,-15.6,22.1,6.9,-15.5,5.73,1.97,-9.1,26.6
2015-05-15 00:12:00,0.0,1.90819,0.00049,404.823,0.031,0.2453,0.0015,139.997,45.000,34188.46080,1.91286,406.025,32.622,45.068,45.000,0.00,0.09,-272.72,-272.78,-6,980,-3,22.4,6.7,-15.5,22.1,6.9,-15.4,5.73,1.97,-9.1,26.6
2015-05-15 00:13:00,0.0,1.90810,0.00027,404.815,0.038,0.2422,0.0022,140.000,45.000,34187.99271,1.91264,406.002,32.620,45.068,45.000,0.00,0.09,-272.71,-272.77,-6,979,-3,22.4,6.7,-15.6,22.1,6.9,-15.5,5.73,1.96,-9.1,26.6
2015-05-15 00:14:00,0.0,1.90820,0.00025,404.829,0.057,0.2416,0.0017,139.997,45.000,34188.12546,1.91278,406.010,32.625,45.068,45.000,0.00,0.09,-272.71,-272.78,-6,980,-3,22.5,6.7,-15.7,22.1,6.9,-15.6,5.73,1.97,-9.1,26.6
2015-05-15 00:15:00,0.0,1.90849,0.00045,404.996,0.065,0.2437,0.0017,139.997,45.000,34187.79293,1.91307,406.187,32.625,45.068,45.000,0.00,0.09,-272.72,-272.78,-6,980,-3,22.4,6.7,-15.6,22.1,6.9,-15.5,5.73,1.96,-9.1,26.5
2015-05-15 00:16:00,0.0,1.90858,0.00044,405.048,0.046,0.2454,0.0014,140.000,45.000,34187.03107,1.91321,406.249,32.645,45.068,45.000,0.00,0.09,-272.72,-272.77,-6,980,-3,22.5,6.8,-15.5,22.1,7.0,-15.4,5.73,1.96,-9.1,26.6
2015-05-15 00:17:00,0.0,1.90873,0.00040,405.127,0.042,0.2464,0.0013,140.001,45.000,34187.97009,1.91337,406.335,32.683,45.068,45.000,0.00,0.09,-272.72,-272.78,-6,980,-3,22.5,6.8,-15.5,22.1,7.0,-15.4,5.73,1.96,-9.1,26.6
2015-05-15 00:18:00,0.0,1.90867,0.00052,405.304,0.056,0.2473,0.0015,140.001,45.000,34189.95077,1.91338,406.512,32.673,45.068,45.000,0.00,0.09,-272.72,-272.78,-5,979,-3,22.5,6.8,-15.4,22.1,7.0,-15.3,5.73,1.96,-9.0,26.6
2015-05-15 00:19:00,0.0,1.90864,0.00039,405.434,0.095,0.2497,0.0014,139.999,45.000,34191.72740,1.91332,406.655,32.677,45.068,45.000,0.00,0.09,-272.72,-272.77,-6,980,-3,22.5,6.9,-15.3,22.1,7.1,-15.2,5.73,1.96,-9.1,26.6
2015-05-15 00:20:00,0.0,1.90883,0.00032,405.516,0.120,0.2511,0.0023,139.999,45.000,34191.78957,1.91361,406.744,32.684,45.068,45.000,0.00,0.09,-272.72,-272.77,-6,980,-3,22.5,6.9,-15.2,22.1,7.1,-15.1,5.73,1.96,-9.0,26.5
2015-05-15 00:21:00,0.0,1.90853,0.00039,405.570,0.139,0.2535,0.0019,140.001,45.000,34192.66904,1.91332,406.820,32.687,45.068,45.000,0.00,0.09,-272.72,-272.78,-6,980,-3,22.5,7.0,-15.1,22.1,7.2,-15.0,5.73,1.97,-9.1,26.6
2015-05-15 00:22:00,0.0,1.90870,0.00041,405.468,0.067,0.2535,0.0017,139.997,45.000,34192.64179,1.91353,406.712,32.688,45.068,45.000,0.00,0.09,-272.71,-272.78,-6,980,-3,22.5,7.0,-15.1,22.1,7.2,-15.0,5.73,1.97,-9.0,26.6
2015-05-15 00:23:00,0.0,1.90864,0.00033,405.453,0.087,0.2545,0.0020,139.999,45.000,34192.06015,1.91342,406.702,32.708,45.068,45.000,0.00,0.09,-272.72,-272.77,-6,980,-3,22.5,7.0,-15.1,22.1,7.2,-14.9,5.73,1.97,-9.0,26.6
2015-05-15 00:24:00,0.0,1.90860,0.00041,405.150,0.154,0.2536,0.0014,140.001,45.000,34191.64741,1.91336,406.404,32.720,45.068,45.000,0.00,0.09,-272.72,-272.78,-6,980,-3,22.5,7.0,-15.1,22.1,7.2,-14.9,5.73,1.96,-9.1,26.6
2015-05-15 00:25:00,0.0,1.90870,0.00043,405.026,0.038,0.2542,0.0016,140.000,45.000,34191.80779,1.91352,406.271,32.736,45.068,45.000,0.00,0.09,-272.72,-272.78,-6,979,-3,22.5,7.0,-15.0,22.1,7.2,-15.0,5.73,1.96,-9.0,26.6
2015-05-15 00:26:00,0.0,1.90871,0.00029,404.982,0.107,0.2562,0.0021,140.002,45.000,34192.91660,1.91358,406.239,32.747,45.068,45.000,0.00,0.09,-272.72,-272.78,-6,980,-3,22.5,7.0,-15.0,22.2,7.2,-14.9,5.73,1.96,-9.0,26.6
2015-05-15 00:27:00,0.0,1.90862,0.00034,404.892,0.035,0.2599,0.0024,140.002,45.000,34194.00977,1.91351,406.168,32.750,45.068,45.000,0.00,0.09,-272.72,-272.77,-6,980,-3,22.5,7.1,-14.8,22.2,7.3,-14.7,5.73,1.96,-9.0,26.6
2015-05-15 00:28:00,0.0,1.90862,0.00031,404.950,0.023,0.2586,0.0014,140.001,45.000,34192.58425,1.91354,406.217,32.748,45.068,45.000,0.00,0.09,-272.72,-272.79,-6,980,-3,22.5,7.1,-14.8,22.2,7.3,-14.7,5.73,1.96,-9.0,26.6
2015-05-15 00:29:00,0.0,1.90838,0.00045,404.952,0.031,0.2592,0.0019,139.998,45.000,34193.99034,1.91329,406.222,32.741,45.068,45.000,0.00,0.09,-272.72,-272.78,-6,980,-3,22.5,7.1,-14.8,22.2,7.3,-14.7,5.73,1.96,-9.0,26.6
2015-05-15 00:30:00,0.0,1.90871,0.00040,404.995,0.038,0.2573,0.0024,139.999,45.000,34192.20236,1.91355,406.254,32.735,45.068,45.000,0.00,0.09,-272.71,-272.78,-6,980,-3,22.5,7.1,-14.9,22.2,7.3,-14.8,5.73,1.96,-9.0,26.6
2015-05-15 00:31:00,0.0,1.90896,0.00033,405.049,0.024,0.2584,0.0015,139.998,45.000,34190.32184,1.91383,406.316,32.722,45.068,45.000,0.00,0.09,-272.72,-272.78,-6,980,-3,22.5,7.1,-14.9,22.2,7.3,-14.8,5.73,1.96,-9.0,26.7
"startDT [UTC]","vpos","CH4 [ppm]","stdev(CH4) [ppm]","CO2 [ppm]","stdev(CO2) [ppm]","H2O_reported [%]","stdev(H2O_reported)","CavityPressure [torr]","CavityTemp [C]","OutletValve","CH4_dry [ppm]","CO2_dry [ppm]","DasTemp [C]","EtalonTemp [C]","WarmBoxTemp [C]","MPVPosition","T_ECpre [C]","T_EC1 [C]","T_EC2 [C]","p_inlet [hPa]","p_in [hPa]","p_out [hPa]","T_inlet [C]","RH_inlet [%]","dwpt_inlet [C]","T_vent [C]","RH_vent [%]","dwpt_vent [C]","flow_vent [l min-1]","flow_inlet [l min-1]","dwpt_sample [C]","T_room [C]"
2015-05-15 00:34:00,0.0,1.90867,0.00040,405.021,0.032,0.2623,0.0017,140.000,45.000,34191.61680,1.91365,406.308,32.694,45.068,45.000,0.00,0.09,-272.72,-272.77,-6,980,-3,22.5,7.2,-14.7,22.2,7.4,-14.6,5.73,1.97,-9.0,26.7
2015-05-15 00:35:00,0.0,1.90867,0.00036,405.029,0.034,0.2594,0.0013,140.000,45.000,34190.74549,1.91356,406.300,32.673,45.068,45.000,0.00,0.09,-272.72,-272.77,-6,980,-3,22.5,7.1,-14.8,22.2,7.3,-14.7,5.73,1.97,-9.0,26.7
2015-05-15 00:36:00,0.0,1.90890,0.00035,405.028,0.044,0.2607,0.0015,140.002,45.000,34192.16017,1.91381,406.308,32.640,45.068,45.000,0.00,0.09,-272.72,-272.78,-6,980,-3,22.5,7.1,-14.8,22.2,7.3,-14.7,5.73,1.97,-9.0,26.7
2015-05-15 00:37:00,0.0,1.90864,0.00038,405.050,0.040,0.2582,0.0019,139.999,45.000,34197.27206,1.91353,406.315,32.625,45.068,45.000,0.00,0.09,-272.71,-272.77,-6,980,-3,22.5,7.1,-14.8,22.2,7.3,-14.7,5.73,1.97,-9.0,26.7
2015-05-15 00:38:00,0.0,1.90822,0.00042,405.094,0.036,0.2594,0.0024,139.997,45.000,34196.55054,1.91313,406.364,32.615,45.068,45.000,0.00,0.09,-272.71,-272.77,-6,980,-3,22.5,7.1,-14.8,22.2,7.3,-14.7,5.73,1.96,-9.0,26.6
2015-05-15 00:39:00,0.0,1.90836,0.00043,405.084,0.026,0.2618,0.0015,139.999,45.000,34198.38225,1.91334,406.371,32.612,45.068,45.000,0.00,0.09,-272.72,-272.78,-6,980,-3,22.5,7.2,-14.7,22.2,7.4,-14.6,5.73,1.96,-8.9,26.6
2015-05-15 00:40:00,0.0,1.90834,0.00031,405.073,0.029,0.2635,0.0029,139.998,45.000,34194.30064,1.91327,406.366,32.630,45.068,45.000,0.00,0.09,-272.72,-272.78,-6,980,-3,22.5,7.2,-14.6,22.2,7.4,-14.6,5.73,1.94,-8.9,26.5
2015-05-15 00:41:00,0.0,1.90823,0.00040,405.023,0.036,0.2674,0.0020,139.999,45.001,34200.48989,1.91330,406.334,32.716,45.068,45.000,0.00,0.09,-272.71,-272.77,-5,979,-3,22.5,7.3,-14.5,22.2,7.5,-14.4,5.73,1.94,-8.9,26.5
2015-05-15 00:42:00,0.0,1.90869,0.00032,405.047,0.029,0.2667,0.0026,140.002,45.001,34204.29731,1.91374,406.353,32.861,45.068,45.000,0.00,0.09,-272.72,-272.78,-6,978,-3,22.5,7.3,-14.5,22.1,7.5,-14.4,5.73,1.94,-8.9,26.5
2015-05-15 00:43:00,0.0,1.90831,0.00035,405.033,0.028,0.2675,0.0018,140.001,45.002,34212.76019,1.91337,406.346,33.029,45.069,45.000,0.00,0.09,-272.73,-272.78,-6,978,-3,22.5,7.3,-14.5,22.1,7.5,-14.4,5.73,1.98,-8.9,26.5
2015-05-15 00:44:00,0.0,1.90809,0.00037,405.100,0.039,0.2671,0.0015,140.000,45.002,34218.85313,1.91315,406.409,33.243,45.069,45.000,0.00,0.09,-272.72,-272.77,-6,977,-3,22.5,7.3,-14.5,22.2,7.5,-14.4,5.73,2.02,-8.8,26.5
2015-05-15 00:45:00,0.0,1.90815,0.00041,405.061,0.025,0.2678,0.0027,140.001,45.002,34225.07158,1.91321,406.375,33.531,45.069,45.001,0.00,0.09,-272.72,-272.77,-5,976,-3,22.5,7.4,-14.5,22.1,7.6,-14.4,5.73,1.99,-8.8,26.5
2015-05-15 00:46:00,0.0,1.90817,0.00036,405.198,0.048,0.2679,0.0017,139.998,45.002,34221.65290,1.91325,406.512,33.840,45.069,45.000,0.00,0.09,-272.72,-272.78,-4,976,-3,22.5,7.4,-14.4,22.1,7.6,-14.4,5.73,1.90,-8.8,26.6
2015-05-15 00:47:00,0.0,1.90804,0.00039,405.132,0.032,0.2656,0.0018,140.001,45.003,34221.37188,1.91305,406.435,34.162,45.069,45.002,0.00,0.09,-272.72,-272.77,-5,974,-3,22.5,7.3,-14.5,22.1,7.5,-14.4,5.73,1.95,-8.8,26.6
2015-05-15 00:48:00,0.0,1.90787,0.00042,405.172,0.063,0.2668,0.0021,139.999,45.003,34215.83301,1.91293,406.479,34.470,45.069,45.001,0.00,0.09,-272.72,-272.77,-5,974,-3,22.5,7.3,-14.5,22.2,7.5,-14.4,5.73,2.05,-8.8,26.8
2015-05-15 00:49:00,0.0,1.90831,0.00036,405.159,0.049,0.2672,0.0018,140.000,45.003,34207.77197,1.91333,406.473,34.758,45.069,45.001,0.00,0.09,-272.72,-272.77,-5,973,-3,22.5,7.3,-14.4,22.2,7.5,-14.4,5.73,1.93,-8.7,26.9
2015-05-15 00:50:00,0.0,1.90823,0.00040,405.110,0.043,0.2672,0.0016,140.000,45.004,34199.12432,1.91332,406.422,35.019,45.068,45.000,0.00,0.09,-272.72,-272.78,-4,972,-3,22.5,7.3,-14.4,22.3,7.5,-14.3,5.73,1.93,-8.7,27.0
2015-05-15 00:51:00,0.0,1.90845,0.00033,405.086,0.030,0.2671,0.0021,140.000,45.004,34194.48403,1.91348,406.397,35.251,45.067,44.999,0.00,0.09,-272.72,-272.77,-4,971,-3,22.6,7.3,-14.5,22.3,7.5,-14.3,5.73,2.05,-8.7,27.1
2015-05-15 00:52:00,0.0,1.90843,0.00036,405.130,0.038,0.2656,0.0014,140.001,45.003,34185.29968,1.91344,406.432,35.454,45.066,44.998,0.00,0.09,-272.72,-272.78,-4,970,-3,22.6,7.3,-14.5,22.3,7.5,-14.3,5.73,1.88,-8.7,27.2
2015-05-15 00:53:00,0.0,1.90835,0.00037,405.093,0.032,0.2664,0.0016,139.999,45.003,34180.61245,1.91340,406.400,35.634,45.066,44.998,0.00,0.09,-272.72,-272.78,-5,969,-2,22.7,7.3,-14.5,22.3,7.5,-14.3,5.73,2.01,-8.7,27.3
2015-05-15 00:54:00,0.0,1.90835,0.00038,405.114,0.055,0.2669,0.0015,140.001,45.003,34171.10514,1.91336,406.421,35.813,45.066,44.998,0.00,0.09,-272.71,-272.78,-3,968,-4,22.7,7.3,-14.4,22.4,7.5,-14.3,5.73,1.97,-8.7,27.4
2015-05-15 00:55:00,0.0,1.90809,0.00035,405.252,0.092,0.2681,0.0020,139.998,45.002,34164.43140,1.91320,406.565,35.963,45.066,44.998,0.00,0.09,-272.71,-272.77,-4,968,-3,22.8,7.3,-14.4,22.4,7.5,-14.2,5.73,1.90,-8.7,27.5
2015-05-15 00:56:00,0.0,1.90796,0.00044,405.474,0.147,0.2703,0.0020,139.998,45.002,34155.04533,1.91309,406.796,36.092,45.066,44.999,0.00,0.09,-272.72,-272.78,-3,966,-3,22.8,7.3,-14.3,22.5,7.5,-14.2,5.73,2.05,-8.7,27.6
2015-05-15 00:57:00,0.0,1.90825,0.00033,405.562,0.067,0.2728,0.0018,140.002,45.002,34147.78204,1.91335,406.905,36.197,45.066,44.999,0.00,0.09,-272.72,-272.77,-4,967,-4,22.9,7.4,-14.2,22.5,7.6,-14.1,5.73,1.86,-8.6,27.6
2015-05-15 00:58:00,0.0,1.90828,0.00031,405.321,0.098,0.2714,0.0027,140.000,45.001,34138.77990,1.91344,406.657,36.301,45.067,45.000,0.00,0.09,-272.72,-272.78,-3,965,-4,22.9,7.3,-14.2,22.5,7.6,-14.1,5.73,2.06,-8.6,27.7
2015-05-15 00:59:00,0.0,1.90804,0.00037,405.357,0.065,0.2727,0.0031,140.001,45.002,34132.69554,1.91324,406.693,36.394,45.067,45.000,0.00,0.09,-272.72,-272.77,-3,963,-4,23.0,7.3,-14.2,22.6,7.6,-14.0,5.73,1.86,-8.6,27.8
2015-05-15 01:00:00,3.0,1.87693,0.00792,399.210,2.321,0.0589,0.0821,139.746,45.001,31125.52186,1.87935,399.684,36.467,45.067,45.000,0.00,0.09,-272.72,-272.78,-3,475,-4,23.0,7.3,-14.1,22.6,7.6,-14.0,5.73,2.00,-8.6,27.9
2015-05-15 01:01:00,3.0,1.87595,0.00029,397.228,0.046,0.0147,0.0013,139.996,45.001,30945.97480,1.87622,397.300,36.532,45.068,45.001,0.00,0.09,-272.71,-272.77,-3,476,-4,23.1,7.3,-14.0,22.7,7.6,-13.9,5.73,1.90,-8.6,28.0
2015-05-15 01:02:00,3.0,1.87603,0.00030,397.283,0.065,0.0155,0.0015,139.994,45.001,30888.22783,1.87631,397.352,36.598,45.068,45.001,0.00,0.09,-272.71,-272.77,-3,476,-4,23.1,7.3,-14.0,22.7,7.6,-13.8,5.73,1.91,-8.5,28.1
2015-05-15 01:03:00,3.0,1.87594,0.00034,397.468,0.048,0.0128,0.0013,139.998,45.001,30846.01300,1.87617,397.528,36.643,45.068,45.001,0.00,0.09,-272.71,-272.77,-3,476,-4,23.2,7.2,-14.1,22.8,7.5,-14.0,5.73,1.98,-8.5,28.2
2015-05-15 01:04:00,3.0,1.87591,0.00044,397.548,0.031,0.0101,0.0016,139.998,45.001,30808.96290,1.87614,397.596,36.725,45.068,45.001,0.00,0.09,-272.71,-272.77,-3,476,-4,23.3,7.2,-14.1,22.8,7.5,-14.0,5.73,1.83,-8.5,28.3
2015-05-15 01:05:00,3.0,1.87614,0.00034,397.573,0.030,0.0080,0.0021,139.998,45.001,30778.97114,1.87628,397.612,36.797,45.068,45.001,0.00,0.09,-272.71,-272.77,-3,476,-4,23.3,7.2,-14.1,22.9,7.5,-14.0,5.73,2.01,-8.4,28.4
2015-05-15 01:06:00,3.0,1.87603,0.00046,397.557,0.032,0.0074,0.0020,139.998,45.001,30756.34250,1.87616,397.592,36.847,45.069,45.001,0.00,0.09,-272.71,-272.78,-2,476,-4,23.4,7.2,-14.1,22.9,7.5,-13.9,5.73,1.82,-8.4,28.5
2015-05-15 01:07:00,3.0,1.87625,0.00025,397.585,0.028,0.0060,0.0019,139.996,45.001,30730.90614,1.87636,397.614,36.905,45.069,45.002,0.00,0.09,-272.71,-272.77,-3,476,-4,23.5,7.2,-14.0,23.0,7.5,-13.9,5.73,2.01,-8.3,28.6
2015-05-15 01:08:00,3.0,1.87592,0.00032,397.563,0.026,0.0052,0.0019,139.999,45.001,30717.00184,1.87605,397.587,36.999,45.069,45.003,0.00,0.10,-272.70,-272.77,-3,476,-4,23.5,7.2,-13.9,23.1,7.5,-13.8,5.73,1.82,-8.2,28.7
2015-05-15 01:09:00,3.0,1.87616,0.00037,397.584,0.032,0.0032,0.0014,139.999,45.001,30702.55743,1.87617,397.600,37.129,45.070,45.003,0.00,0.10,-272.71,-272.77,-2,476,-4,23.6,7.1,-14.0,23.1,7.5,-13.8,5.73,1.99,-8.1,28.8
2015-05-15 01:10:00,3.0,1.87644,0.00031,397.584,0.036,0.0037,0.0025,140.002,45.001,30691.38538,1.87651,397.600,37.277,45.070,45.003,0.00,0.10,-272.71,-272.77,-3,476,-4,23.7,7.2,-13.9,23.2,7.4,-13.8,5.73,1.82,-8.1,28.9
2015-05-15 01:11:00,3.0,1.87632,0.00042,397.587,0.031,0.0027,0.0015,139.997,45.002,30683.55165,1.87640,397.602,37.393,45.069,45.002,0.00,0.10,-272.71,-272.77,-2,476,-4,23.7,7.1,-13.9,23.3,7.4,-13.8,5.73,1.98,-8.1,29.1
2015-05-15 01:12:00,3.0,1.87632,0.00036,397.586,0.027,0.0019,0.0024,139.998,45.002,30681.67754,1.87634,397.594,37.475,45.069,45.002,0.00,0.10,-272.71,-272.77,-3,477,-4,23.8,7.1,-13.9,23.4,7.4,-13.8,5.73,1.83,-8.0,29.1
2015-05-15 01:13:00,3.0,1.87641,0.00024,397.599,0.028,0.0028,0.0012,139.997,45.003,30681.96772,1.87645,397.612,37.537,45.069,45.002,0.00,0.10,-272.72,-272.77,-2,477,-4,23.9,7.1,-13.8,23.4,7.4,-13.7,5.73,1.99,-8.0,29.2
2015-05-15 01:14:00,3.0,1.87661,0.00032,397.610,0.034,0.0018,0.0018,140.001,45.003,30687.44155,1.87664,397.620,37.562,45.069,45.002,0.00,0.10,-272.71,-272.77,-2,477,-4,23.9,7.1,-13.9,23.4,7.3,-13.8,5.73,1.82,-7.9,29.2
2015-05-15 01:15:00,3.0,1.87647,0.00041,397.609,0.032,0.0028,0.0016,139.999,45.003,30691.46015,1.87653,397.622,37.516,45.068,45.001,0.00,0.10,-272.70,-272.76,-2,477,-5,23.9,7.0,-13.9,23.5,7.3,-13.8,5.73,1.94,-7.9,29.2
2015-05-15 01:16:00,3.0,1.87668,0.00033,397.633,0.026,0.0013,0.0019,140.001,45.002,30696.28632,1.87668,397.638,37.416,45.068,45.001,0.00,0.10,-272.70,-272.77,-1,478,-5,23.9,7.0,-14.0,23.5,7.3,-13.8,5.73,1.87,-7.9,29.3
2015-05-15 01:17:00,3.0,1.87651,0.00032,397.639,0.028,0.0024,0.0018,140.002,45.001,30701.35696,1.87657,397.651,37.323,45.067,45.000,0.00,0.10,-272.71,-272.77,-3,478,-5,23.9,7.0,-13.9,23.5,7.3,-13.8,5.73,1.86,-7.9,29.2
2015-05-15 01:18:00,3.0,1.87674,0.00033,397.633,0.034,0.0019,0.0015,139.997,45.000,30706.41179,1.87673,397.640,37.195,45.067,45.000,0.00,0.10,-272.70,-272.77,-2,478,-5,23.9,7.1,-13.8,23.5,7.3,-13.7,5.73,1.97,-7.9,29.3
2015-05-15 01:19:00,3.0,1.87627,0.00034,397.617,0.042,0.0021,0.0015,140.000,44.999,30714.98543,1.87633,397.629,37.058,45.066,45.000,0.00,0.10,-272.70,-272.77,-1,479,-5,23.9,7.1,-13.9,23.5,7.3,-13.7,5.73,1.78,-7.9,29.2
2015-05-15 01:20:00,3.0,1.87661,0.00034,397.614,0.027,0.0017,0.0013,140.003,44.998,30718.31248,1.87664,397.620,36.945,45.066,45.000,0.00,0.10,-272.71,-272.78,-2,479,-5,23.9,7.1,-13.9,23.5,7.3,-13.8,5.73,1.95,-7.9,29.1
2015-05-15 01:21:00,3.0,1.87642,0.00038,397.612,0.031,0.0003,0.0022,140.001,44.998,30720.89394,1.87646,397.615,36.787,45.066,45.000,0.00,0.10,-272.70,-272.77,-2,479,-5,24.0,7.0,-14.0,23.6,7.3,-13.8,5.73,1.90,-7.8,29.0
2015-05-15 01:22:00,3.0,1.87647,0.00030,397.617,0.028,0.0011,0.0025,140.000,44.998,30721.50222,1.87648,397.622,36.616,45.066,45.000,0.00,0.10,-272.70,-272.77,-2,480,-5,24.0,7.0,-14.0,23.6,7.3,-13.8,5.73,1.81,-7.8,29.0
2015-05-15 01:23:00,3.0,1.87635,0.00025,397.631,0.035,0.0010,0.0015,139.998,44.998,30721.20371,1.87638,397.637,36.459,45.066,45.000,0.00,0.10,-272.71,-272.77,-2,480,-5,24.0,7.0,-13.9,23.6,7.3,-13.8,5.73,1.95,-7.8,28.9
2015-05-15 01:24:00,3.0,1.87656,0.00034,397.619,0.031,0.0010,0.0024,139.999,44.998,30719.79553,1.87656,397.624,36.288,45.067,45.000,0.00,0.10,-272.71,-272.77,-3,480,-5,24.1,7.0,-13.8,23.6,7.2,-13.8,5.73,1.93,-7.8,28.7
2015-05-15 01:25:00,2.0,1.85184,0.01254,391.100,3.074,0.0120,0.0126,140.044,44.997,31299.03035,1.85324,391.311,36.119,45.067,45.000,0.00,0.10,-272.71,-272.77,-4,568,-5,24.1,7.0,-13.8,23.7,7.3,-13.7,5.73,1.90,-7.8,28.7
2015-05-15 01:26:00,2.0,1.84620,0.00045,389.648,0.033,0.0091,0.0021,139.999,44.997,31342.66777,1.84639,389.689,35.937,45.066,45.000,0.00,0.10,-272.71,-272.77,-4,570,-5,24.1,7.1,-13.7,23.7,7.3,-13.6,5.73,1.86,-7.8,28.6
2015-05-15 01:27:00,2.0,1.84620,0.00035,389.659,0.032,0.0098,0.0026,140.002,44.997,31353.87196,1.84635,389.705,35.720,45.066,44.999,0.00,0.10,-272.71,-272.77,-4,571,-5,24.1,7.1,-13.7,23.7,7.3,-13.6,5.73,1.89,-7.8,28.5
2015-05-15 01:28:00,2.0,1.84611,0.00034,389.627,0.029,0.0084,0.0014,139.998,44.997,31361.16526,1.84627,389.667,35.477,45.066,44.999,0.00,0.10,-272.71,-272.77,-4,571,-5,24.1,7.0,-13.8,23.7,7.3,-13.6,5.73,1.92,-7.7,28.5
2015-05-15 01:29:00,2.0,1.84641,0.00044,389.642,0.030,0.0050,0.0023,140.001,44.997,31363.80386,1.84650,389.665,35.248,45.066,45.000,0.00,0.10,-272.71,-272.77,-5,572,-5,24.1,7.1,-13.6,23.7,7.4,-13.5,5.73,1.93,-7.7,28.5
2015-05-15 01:30:00,2.0,1.84659,0.00035,389.657,0.018,0.0044,0.0015,139.999,44.997,31365.33848,1.84665,389.678,35.032,45.066,45.000,0.00,0.10,-272.71,-272.77,-4,572,-5,24.1,7.1,-13.6,23.7,7.4,-13.5,5.73,1.93,-7.7,28.5
2015-05-15 01:31:00,2.0,1.84659,0.00029,389.633,0.029,0.0028,0.0014,140.001,44.997,31366.45502,1.84665,389.649,34.832,45.067,45.000,0.00,0.10,-272.71,-272.77,-5,572,-5,24.1,7.2,-13.6,23.7,7.4,-13.5,5.73,1.93,-7.7,28.5
2015-05-15 01:32:00,2.0,1.84666,0.00036,389.637,0.032,0.0029,0.0022,140.000,44.997,31367.56212,1.84670,389.648,34.647,45.067,45.000,0.00,0.10,-272.71,-272.77,-5,572,-5,24.1,7.2,-13.5,23.7,7.4,-13.5,5.73,1.92,-7.7,28.4
2015-05-15 01:33:00,2.0,1.84654,0.00032,389.649,0.024,0.0011,0.0025,139.999,44.998,31368.05763,1.84659,389.655,34.491,45.068,45.001,0.00,0.10,-272.71,-272.77,-5,572,-5,24.1,7.2,-13.5,23.7,7.4,-13.4,5.73,1.93,-7.7,28.4
2015-05-15 01:34:00,2.0,1.84653,0.00042,389.651,0.035,0.0019,0.0015,139.998,44.998,31368.26097,1.84653,389.660,34.363,45.068,45.001,0.00,0.10,-272.71,-272.77,-5,573,-5,24.1,7.2,-13.4,23.7,7.5,-13.4,5.73,1.92,-7.8,28.4
2015-05-15 01:35:00,2.0,1.84646,0.00025,389.658,0.028,0.0015,0.0014,139.998,44.998,31367.41377,1.84650,389.665,34.256,45.067,45.000,0.00,0.10,-272.71,-272.77,-5,573,-5,24.1,7.3,-13.4,23.7,7.5,-13.3,5.73,1.91,-7.8,28.3
2015-05-15 01:36:00,2.0,1.84679,0.00036,389.686,0.034,0.0016,0.0020,139.999,44.998,31365.09845,1.84679,389.693,34.141,45.067,45.000,0.00,0.10,-272.71,-272.77,-5,573,-5,24.1,7.3,-13.4,23.7,7.5,-13.3,5.73,1.91,-7.8,28.2
2015-05-15 01:37:00,2.0,1.84690,0.00024,389.674,0.026,0.0011,0.0015,139.999,44.998,31365.08815,1.84692,389.679,34.035,45.067,44.999,0.00,0.10,-272.71,-272.77,-5,573,-5,24.1,7.3,-13.4,23.7,7.5,-13.3,5.73,1.90,-7.8,28.2
2015-05-15 01:38:00,2.0,1.84665,0.00033,389.661,0.035,0.0010,0.0017,139.998,44.998,31364.72448,1.84670,389.667,33.924,45.067,44.999,0.00,0.10,-272.71,-272.77,-5,573,-5,24.0,7.3,-13.4,23.7,7.5,-13.2,5.73,1.90,-7.8,28.2
2015-05-15 01:39:00,2.0,1.84673,0.00027,389.686,0.029,0.0005,0.0014,139.999,44.998,31362.77408,1.84675,389.687,33.832,45.067,44.999,0.00,0.10,-272.71,-272.77,-5,573,-5,24.0,7.3,-13.4,23.7,7.5,-13.3,5.73,1.90,-7.8,28.0
2015-05-15 01:40:00,2.0,1.84676,0.00034,389.689,0.046,0.0006,0.0014,140.000,44.998,31360.17288,1.84676,389.692,33.737,45.067,44.999,0.00,0.10,-272.72,-272.77,-6,573,-5,24.0,7.3,-13.4,23.7,7.5,-13.3,5.73,1.91,-7.8,27.9
2015-05-15 01:41:00,2.0,1.84668,0.00030,389.690,0.031,0.0008,0.0021,140.001,44.999,31358.83819,1.84670,389.694,33.664,45.067,44.999,0.00,0.10,-272.71,-272.77,-6,573,-5,24.0,7.3,-13.4,23.7,7.6,-13.2,5.73,1.93,-7.8,28.0
2015-05-15 01:42:00,2.0,1.84659,0.00031,389.665,0.027,0.0004,0.0012,139.998,44.999,31358.30003,1.84660,389.667,33.593,45.067,44.999,0.00,0.10,-272.70,-272.77,-6,573,-5,24.0,7.3,-13.4,23.7,7.6,-13.2,5.73,1.95,-7.8,28.0
2015-05-15 01:43:00,2.0,1.84669,0.00037,389.671,0.031,0.0008,0.0020,139.997,44.999,31355.54061,1.84672,389.675,33.531,45.067,44.999,0.00,0.10,-272.71,-272.77,-6,573,-5,24.0,7.4,-13.3,23.7,7.6,-13.2,5.73,1.96,-7.8,27.9
2015-05-15 01:44:00,2.0,1.84692,0.00028,389.668,0.021,0.0007,0.0020,139.998,44.999,31354.20000,1.84692,389.671,33.477,45.067,44.999,0.00,0.09,-272.71,-272.77,-6,574,-5,24.0,7.5,-13.1,23.6,7.7,-13.0,5.73,1.96,-7.8,27.8
2015-05-15 01:45:00,2.0,1.84671,0.00039,389.684,0.028,0.0011,0.0016,139.997,44.999,31352.99510,1.84672,389.688,33.411,45.067,44.999,0.00,0.10,-272.70,-272.77,-6,574,-5,24.0,7.5,-13.1,23.6,7.7,-13.0,5.73,1.94,-7.8,27.8
2015-05-15 01:46:00,2.0,1.84657,0.00027,389.691,0.021,0.0012,0.0021,140.002,44.999,31354.67770,1.84662,389.698,33.349,45.067,44.999,0.00,0.10,-272.71,-272.77,-6,574,-5,24.0,7.5,-13.1,23.6,7.7,-13.0,5.73,1.90,-7.8,27.8